EW2348 Weather Reports


Display with metric or nautical units.
time (UTC)temp
F
wind
direction
speed
MPH
gust
MPH
rain 1hr
in
rain 24hr
in
rain mn
in
humidity
%
barometer
mb
20141023015015 50 304 3.0 5.0 0.00 0.00 0.00 79 1024.6
20141023014015 50 339 2.0 7.0 0.00 0.00 0.00 79 1024.7
20141023013015 50 351 3.0 4.0 0.00 0.00 0.00 80 1024.5
20141023012015 50 315 1.0 4.0 0.00 0.00 0.00 79 1024.5
20141023010015 50 328 3.0 6.0 0.00 0.00 0.00 78 1024.7
20141023005014 50 314 1.0 4.0 0.00 0.00 0.00 78 1024.5
20141023004014 50 312 0.0 4.0 0.00 0.00 0.00 79 1024.6
20141023003016 50 315 1.0 4.0 0.00 0.00 0.00 78 1024.5
20141023002014 50 356 2.0 5.0 0.00 0.00 0.00 78 1024.4
20141023001014 50 336 2.0 5.0 0.00 0.00 0.00 78 1024.4
20141022235015 50 330 1.0 4.0 0.00 0.00 0.00 78 1024.3
20141022233014 50 311 1.0 5.0 0.00 0.00 0.00 77 1024.3
20141022232013 50 325 3.0 5.0 0.00 0.00 0.00 77 1024.2
20141022230013 51 303 2.0 6.0 0.00 0.00 0.00 76 1024.3
20141022224013 51 316 1.0 4.0 0.00 0.00 0.00 75 1024.3
20141022222013 51 336 2.0 4.0 0.00 0.00 0.00 75 1024.2
20141022220013 52 297 0.0 4.0 0.00 0.00 0.00 74 1024.3
20141022215012 52 297 2.0 3.0 0.00 0.00 0.00 75 1024.3
20141022213014 52 320 3.0 5.0 0.00 0.00 0.00 73 1024.2
20141022212012 52 319 2.0 4.0 0.00 0.00 0.00 73 1024.3
20141022211012 52 303 2.0 8.0 0.00 0.00 0.00 74 1024.5
20141022210012 52 293 2.0 5.0 0.00 0.00 0.00 73 1024.4
20141022204012 53 308 1.0 9.0 0.00 0.00 0.00 73 1024.5
20141022203011 53 309 5.0 9.0 0.00 0.00 0.00 73 1024.4
20141022201013 54 292 1.0 4.0 0.00 0.00 0.00 73 1024.5
20141022200011 54 265 1.0 4.0 0.00 0.00 0.00 71 1024.5
20141022195011 54 332 1.0 8.0 0.00 0.00 0.00 72 1024.4
20141022194012 54 299 2.0 10.0 0.00 0.00 0.00 74 1024.4
20141022190010 55 298 2.0 5.0 0.00 0.00 0.00 69 1024.4
20141022185011 56 292 2.0 5.0 0.00 0.00 0.00 67 1024.3
20141022184013 56 306 2.0 7.0 0.00 0.00 0.00 68 1024.3
20141022183013 56 310 2.0 10.0 0.00 0.00 0.00 67 1024.5
20141022182010 57 336 1.0 8.0 0.00 0.00 0.00 68 1024.4
20141022175010 55 336 2.0 10.0 0.00 0.00 0.00 68 1024.8
20141022172010 56 275 2.0 4.0 0.00 0.00 0.00 66 1025.2
20141022171010 55 278 1.0 5.0 0.00 0.00 0.00 67 1025.1
20141022170009 56 299 2.0 7.0 0.00 0.00 0.00 67 1025.3
20141022164009 58 290 1.0 8.0 0.00 0.00 0.00 64 1025.3
20141022163010 56 347 2.0 7.0 0.00 0.00 0.00 67 1025.5
20141022162009 59 305 2.0 11.0 0.00 0.00 0.00 61 1025.4
20141022161009 59 319 2.0 12.0 0.00 0.00 0.00 62 1025.2
20141022153009 58 305 1.0 7.0 0.00 0.00 0.00 64 1024.9
20141022152008 57 313 1.0 8.0 0.00 0.00 0.00 64 1025.0
20141022151008 56 312 2.0 8.0 0.00 0.00 0.00 66 1024.7
20141022145008 55 303 1.0 6.0 0.00 0.00 0.00 66 1024.9
20141022144008 56 288 2.0 6.0 0.00 0.00 0.00 68 1025.0
20141022141007 48 297 2.0 7.0 0.00 0.01 0.00 82 1024.8
20141022140007 47 304 2.0 4.0 0.00 0.01 0.00 83 1024.9
20141022134008 46 286 2.0 6.0 0.00 0.01 0.00 85 1024.8
20141022132007 45 315 2.0 8.0 0.00 0.01 0.00 86 1024.7